| time (UTC) | temp F | wind direction | speed MPH | gust MPH | rain 1hr in | rain 24hr in | rain mn in | humidity % | barometer mb |
| 20260505024522 | 73 | 180 | 2.0 | 3.0 | 0.00 | 0.00 | 0.00 | 64 | 1005.0 |
| 20260505023521 | 73 | 203 | 2.0 | 5.0 | 0.00 | 0.00 | 0.00 | 64 | 1004.8 |
| 20260505022521 | 72 | 225 | 2.0 | 5.0 | 0.00 | 0.00 | 0.00 | 64 | 1004.5 |
| 20260505021542 | 72 | 180 | 1.0 | 2.0 | 0.00 | 0.00 | 0.00 | 63 | 1004.4 |
| 20260505020522 | 72 | 180 | 1.0 | 2.0 | 0.00 | 0.00 | 0.00 | 62 | 1004.3 |
| 20260505015521 | 72 | 0.0 | 1.0 | 0.00 | 0.00 | 0.00 | 60 | 1004.3 | |
| 20260505014521 | 73 | 0.0 | 0.0 | 0.00 | 0.00 | 0.00 | 58 | 1004.2 | |
| 20260505013521 | 74 | 0.0 | 0.0 | 0.00 | 0.00 | 0.00 | 58 | 1004.2 | |
| 20260505012522 | 75 | 0.0 | 1.0 | 0.00 | 0.00 | 0.00 | 56 | 1003.9 | |
| 20260505011522 | 76 | 0.0 | 1.0 | 0.00 | 0.00 | 0.00 | 53 | 1003.8 | |
| 20260505010542 | 77 | 0.0 | 0.0 | 0.00 | 0.00 | 0.00 | 51 | 1003.6 | |
| 20260505005521 | 78 | 0.0 | 0.0 | 0.00 | 0.00 | 0.00 | 50 | 1003.5 | |
| 20260505004521 | 78 | 0.0 | 1.0 | 0.00 | 0.00 | 0.00 | 49 | 1003.4 | |
| 20260505003521 | 79 | 180 | 1.0 | 2.0 | 0.00 | 0.00 | 0.00 | 48 | 1003.3 |
| 20260505002521 | 79 | 0.0 | 1.0 | 0.00 | 0.00 | 0.00 | 48 | 1003.4 | |
| 20260505001521 | 80 | 0.0 | 2.0 | 0.00 | 0.00 | 0.00 | 47 | 1003.3 | |
| 20260505000521 | 80 | 0.0 | 2.0 | 0.00 | 0.00 | 0.00 | 47 | 1003.4 | |
| 20260504235521 | 80 | 203 | 1.0 | 2.0 | 0.00 | 0.00 | 0.00 | 47 | 1003.4 |
| 20260504234622 | 80 | 0 | 1.0 | 3.0 | 0.00 | 0.00 | 0.00 | 46 | 1003.3 |
| 20260504233521 | 80 | 203 | 1.0 | 2.0 | 0.00 | 0.00 | 0.00 | 45 | 1003.4 |
| 20260504232641 | 81 | 225 | 1.0 | 3.0 | 0.00 | 0.00 | 0.00 | 44 | 1003.4 |
| 20260504231541 | 81 | 180 | 1.0 | 6.0 | 0.00 | 0.00 | 0.00 | 43 | 1003.5 |
| 20260504230541 | 81 | 203 | 2.0 | 5.0 | 0.00 | 0.00 | 0.00 | 44 | 1003.5 |
| 20260504225521 | 81 | 203 | 3.0 | 9.0 | 0.00 | 0.00 | 0.00 | 44 | 1003.5 |
| 20260504224522 | 81 | 203 | 2.0 | 6.0 | 0.00 | 0.00 | 0.00 | 43 | 1003.5 |
| 20260504223521 | 81 | 225 | 2.0 | 6.0 | 0.00 | 0.00 | 0.00 | 43 | 1003.5 |
| 20260504222521 | 82 | 203 | 3.0 | 6.0 | 0.00 | 0.00 | 0.00 | 42 | 1003.5 |
| 20260504221521 | 81 | 180 | 2.0 | 7.0 | 0.00 | 0.00 | 0.00 | 44 | 1003.5 |
| 20260504220541 | 81 | 203 | 2.0 | 7.0 | 0.00 | 0.00 | 0.00 | 46 | 1003.7 |
| 20260504215541 | 81 | 203 | 1.0 | 2.0 | 0.00 | 0.00 | 0.00 | 45 | 1003.7 |
| 20260504214541 | 81 | 270 | 2.0 | 5.0 | 0.00 | 0.00 | 0.00 | 43 | 1003.9 |
| 20260504213521 | 81 | 203 | 4.0 | 10.0 | 0.00 | 0.00 | 0.00 | 43 | 1004.1 |
| 20260504212521 | 81 | 203 | 4.0 | 9.0 | 0.00 | 0.00 | 0.00 | 41 | 1004.1 |
| 20260504211521 | 80 | 203 | 4.0 | 11.0 | 0.00 | 0.00 | 0.00 | 44 | 1004.0 |
| 20260504210521 | 80 | 203 | 4.0 | 10.0 | 0.00 | 0.00 | 0.00 | 43 | 1004.1 |
| 20260504205521 | 81 | 225 | 4.0 | 12.0 | 0.00 | 0.00 | 0.00 | 43 | 1004.2 |
| 20260504204521 | 81 | 203 | 5.0 | 9.0 | 0.00 | 0.00 | 0.00 | 42 | 1004.3 |
| 20260504203541 | 82 | 158 | 5.0 | 12.0 | 0.00 | 0.00 | 0.00 | 42 | 1004.4 |
| 20260504202521 | 83 | 203 | 4.0 | 10.0 | 0.00 | 0.00 | 0.00 | 41 | 1004.4 |
| 20260504201521 | 83 | 203 | 4.0 | 9.0 | 0.00 | 0.00 | 0.00 | 44 | 1004.4 |
| 20260504200521 | 82 | 225 | 4.0 | 9.0 | 0.00 | 0.00 | 0.00 | 44 | 1004.5 |
| 20260504195600 | 82 | 225 | 3.0 | 9.0 | 0.00 | 0.00 | 0.00 | 43 | 1004.6 |
| 20260504194521 | 82 | 180 | 4.0 | 10.0 | 0.00 | 0.00 | 0.00 | 45 | 1004.4 |
| 20260504193541 | 81 | 180 | 4.0 | 10.0 | 0.00 | 0.00 | 0.00 | 45 | 1004.5 |
| 20260504192521 | 81 | 203 | 4.0 | 10.0 | 0.00 | 0.00 | 0.00 | 45 | 1004.5 |
| 20260504191520 | 81 | 203 | 4.0 | 9.0 | 0.00 | 0.00 | 0.00 | 45 | 1004.5 |
| 20260504190541 | 81 | 203 | 6.0 | 12.0 | 0.00 | 0.00 | 0.00 | 43 | 1004.6 |
| 20260504185521 | 81 | 225 | 4.0 | 10.0 | 0.00 | 0.00 | 0.00 | 45 | 1004.6 |
| 20260504184621 | 80 | 293 | 3.0 | 7.0 | 0.00 | 0.00 | 0.00 | 44 | 1004.7 |
| 20260504183520 | 80 | 158 | 3.0 | 8.0 | 0.00 | 0.00 | 0.00 | 46 | 1004.7 |
| 20260504182521 | 79 | 180 | 5.0 | 10.0 | 0.00 | 0.00 | 0.00 | 44 | 1004.8 |
| 20260504181541 | 79 | 225 | 5.0 | 13.0 | 0.00 | 0.00 | 0.00 | 48 | 1004.8 |
| 20260504180520 | 79 | 270 | 3.0 | 6.0 | 0.00 | 0.00 | 0.00 | 44 | 1004.9 |
| 20260504175521 | 78 | 338 | 3.0 | 9.0 | 0.00 | 0.00 | 0.00 | 46 | 1005.0 |
| 20260504174522 | 78 | 180 | 5.0 | 17.0 | 0.00 | 0.00 | 0.00 | 46 | 1005.1 |
| 20260504173541 | 78 | 180 | 2.0 | 6.0 | 0.00 | 0.00 | 0.00 | 46 | 1005.0 |
| 20260504172521 | 77 | 270 | 3.0 | 12.0 | 0.00 | 0.00 | 0.00 | 46 | 1005.1 |
| 20260504171520 | 77 | 203 | 4.0 | 10.0 | 0.00 | 0.00 | 0.00 | 47 | 1005.3 |
| 20260504170520 | 76 | 270 | 3.0 | 8.0 | 0.00 | 0.00 | 0.00 | 46 | 1005.3 |
| 20260504150522 | 70 | 225 | 6.0 | 16.0 | 0.00 | 0.00 | 0.00 | 53 | 1005.6 |
| 20260504140520 | 67 | 203 | 5.0 | 13.0 | 0.00 | 0.00 | 0.00 | 56 | 1005.8 |
| 20260504130522 | 66 | 203 | 4.0 | 9.0 | 0.00 | 0.00 | 0.00 | 57 | 1005.6 |
| 20260504110522 | 64 | 203 | 2.0 | 8.0 | 0.00 | 0.00 | 0.00 | 56 | 1006.5 |
| 20260504100541 | 66 | 203 | 3.0 | 8.0 | 0.00 | 0.00 | 0.00 | 51 | 1006.7 |
| 20260504081521 | 66 | 180 | 4.0 | 11.0 | 0.00 | 0.00 | 0.00 | 52 | 1007.3 |
| 20260504080521 | 66 | 158 | 3.0 | 6.0 | 0.00 | 0.00 | 0.00 | 53 | 1007.5 |
| 20260504050521 | 61 | 180 | 1.0 | 4.0 | 0.00 | 0.00 | 0.00 | 69 | 1009.4 |
| 20260504045520 | 61 | 180 | 1.0 | 3.0 | 0.00 | 0.00 | 0.00 | 69 | 1009.4 |
| 20260504044520 | 61 | 180 | 1.0 | 2.0 | 0.00 | 0.00 | 0.00 | 70 | 1009.4 |
| 20260504043520 | 61 | 180 | 2.0 | 4.0 | 0.00 | 0.00 | 0.00 | 69 | 1009.2 |
| 20260504042520 | 62 | 180 | 1.0 | 2.0 | 0.00 | 0.00 | 0.00 | 68 | 1009.1 |
| 20260504041522 | 63 | 180 | 1.0 | 1.0 | 0.00 | 0.00 | 0.00 | 65 | 1009.0 |
| 20260504040520 | 63 | 0.0 | 1.0 | 0.00 | 0.00 | 0.00 | 65 | 1009.0 | |
| 20260504035540 | 64 | 0.0 | 1.0 | 0.00 | 0.00 | 0.00 | 64 | 1009.2 | |
| 20260504034522 | 64 | 0.0 | 2.0 | 0.00 | 0.00 | 0.00 | 63 | 1009.2 | |
| 20260504033522 | 65 | 180 | 1.0 | 2.0 | 0.00 | 0.00 | 0.00 | 63 | 1009.3 |
| 20260504032520 | 65 | 180 | 1.0 | 2.0 | 0.00 | 0.00 | 0.00 | 63 | 1009.4 |
| 20260504031522 | 66 | 180 | 1.0 | 2.0 | 0.00 | 0.00 | 0.00 | 62 | 1009.5 |
| 20260504030522 | 66 | 180 | 1.0 | 4.0 | 0.00 | 0.00 | 0.00 | 60 | 1009.6 |
| 20260504025542 | 67 | 180 | 1.0 | 2.0 | 0.00 | 0.00 | 0.00 | 59 | 1009.6 |